Location: Föhrste
(51.9628°N, 9.8359°E)
Time: 07:42:45
(UTC+00:00)

Daily predictions for brighter satellites

Satellite Brightness Start Highest point End
(mag) Time Altitude Azimuth Time Altitude Azimuth Time Altitude Azimuth
ATLAS 2AS CENTAUR R/B 2.9 20:23:34 10° NW 20:30:45 72° SW 20:37:25 10° SSE
Spot 2 Rocket 3.6 20:26:52 10° SSE 20:31:57 80° ENE 20:37:06 10° NNW
Cosmos 1544 Rocket 3.6 20:28:09 10° N 20:32:31 88° E 20:36:50 10° S
Meteor 1-24 Rocket 3.6 20:29:31 10° S 20:34:50 83° E 20:40:19 10° NNE
Lacrosse 5 2.2 20:30:36 10° WNW 20:35:37 57° SW 20:40:36 10° SE
USA 234 3.6 20:30:07 10° E 20:36:39 72° NNE 20:43:12 10° WNW
Cosmos 1371 Rocket 4.1 20:31:59 10° SSW 20:37:13 87° ESE 20:42:34 10° NNE
Cosmos 1452 Rocket 4.4 20:33:26 10° SSE 20:38:02 32° ESE 20:42:39 10° NE
X-37B 2.0 20:37:31 10° SSW 20:39:24 16° SSE 20:41:16 10° SE
Cosmos 1833 Rocket 3.9 20:37:03 10° SSE 20:41:16 22° ESE 20:45:30 10° NE
Terra 1.9 20:38:34 10° SSE 20:43:18 70° ENE 20:48:03 10° N
Cosmos 2184 Rocket 4.1 20:39:08 10° N 20:45:18 66° ENE 20:51:27 10° SSE
FALCON 9 DEB 3.0 20:42:23 10° W 20:45:39 84° NNW 20:48:55 10° ENE
Resurs 01 Rocket 3.8 20:46:44 10° SW 20:50:16 23° W 20:53:50 10° NW
Cosmos 724 4.4 20:47:29 10° SSW 20:53:06 54° ESE 20:58:45 10° NE
CZ-4B R/B 3.4 20:52:06 10° N 20:54:34 25° WNW 20:57:00 10° SW
Helios 1A Rocket 3.2 20:52:07 10° S 20:56:09 64° WSW 21:00:15 10° NNW
Cosmos 1624 Rocket 4.3 20:52:20 10° SSW 20:57:34 73° WNW 21:02:48 10° NNE
Lacrosse 5 rocket 2.9 20:55:31 10° W 20:58:31 22° SW 21:01:38 10° S
Cosmos 1271 Rocket 3.6 20:55:56 10° NNW 20:59:48 49° W 21:03:37 10° S
Cosmos 2082 Rocket 4.0 21:01:09 10° SE 21:04:17 15° E 21:07:24 10° ENE
ERS-1 Rocket 3.4 21:04:16 10° S 21:09:14 60° WSW 21:14:15 10° NNW
RESURS DK-1 2.4 21:05:20 10° NNW 21:09:29 84° ENE 21:13:07 13° SE
Cosmos 2058 Rocket 4.4 21:10:21 10° N 21:14:13 29° ENE 21:17:48 11° SE
CZ-2C R/B 3.7 21:11:00 10° NNE 21:15:40 87° ESE 21:20:10 10° SSW
Cosmos 2056 Rocket 4.5 21:13:07 10° SW 21:18:25 53° WNW 21:23:45 10° NNE
Cosmos 1741 Rocket 4.2 21:15:49 10° NNW 21:21:09 75° WSW 21:25:51 13° SSE
ARIANE 5 R/B 2.8 21:18:10 11° S 21:22:24 69° WSW 21:26:52 10° NNW
Cosmos 968 Rocket 4.2 21:17:41 10° NNW 21:22:41 45° ENE 21:27:23 12° SE
Cosmos 1825 4.5 21:24:55 10° ESE 21:26:08 11° E 21:27:20 10° ENE
Cosmos 2344 4.2 21:18:30 10° NW 21:27:03 86° NE 21:38:56 10° SE
SL-8 R/B 4.0 21:24:13 10° W 21:28:51 49° SSW 21:33:28 10° ESE
GP-B 3.8 21:26:28 10° NNE 21:30:40 39° E 21:33:53 16° SSE
Cosmos 1455 4.2 21:27:44 10° NW 21:30:48 23° W 21:33:52 10° SW
Cosmos 2074 Rocket 4.5 21:27:36 10° NNW 21:33:47 60° W 21:39:54 10° S
ASTEX 1 3.7 21:33:53 10° NNE 21:38:49 56° E 21:42:45 16° SSE
ADEOS Rocket 4.3 21:33:35 10° SE 21:40:18 43° ENE 21:47:26 10° N
COSMOS 2406 3.9 21:37:53 14° S 21:42:19 38° ESE 21:47:36 10° NE
Cosmos 2369 3.9 21:37:34 10° NNW 21:43:19 72° ENE 21:48:09 15° SE
USA 267 3.3 21:37:10 10° ENE 21:43:37 57° SE 21:50:02 10° SW
SL-16 R/B 3.9 21:39:29 10° NNW 21:44:20 28° NE 21:49:11 10° E
TSX-5 4.5 21:40:32 10° SSW 21:45:07 89° NW 21:51:09 10° NE
Cosmos 2228 3.7 21:44:23 10° NNW 21:48:28 46° W 21:52:05 12° SSW
Cosmos 1980 Rocket 2.3 21:46:13 10° NNW 21:51:57 74° ENE 21:56:37 16° SE
Nadezhda 1 Rocket 4.0 21:47:20 10° SSW 21:53:26 82° W 21:59:33 10° N
Cosmos 1606 Rocket 3.8 21:49:17 10° NNW 21:53:34 63° W 21:56:56 16° S
Cosmos 1697 Rocket 2.9 21:48:54 10° NW 21:54:28 63° WSW 21:58:44 17° SSE
Cosmos 1703 4.3 21:52:04 10° SSW 21:55:44 43° WNW 21:59:28 10° N
SJ 16-02 3.7 21:54:19 10° N 21:57:18 17° NE 22:00:17 10° E
Cosmos 1892 3.4 21:55:58 20° SSE 21:58:04 39° E 22:01:36 10° NNE
Cosmos 2084 Rocket 3.2 21:55:56 10° NW 21:59:49 88° SW 22:02:43 18° SE
Meteor 1-11 4.4 21:57:30 17° S 22:01:47 58° E 22:07:17 10° NNE
USA 276 2.0 22:02:03 10° WSW 22:05:00 52° S 22:07:57 10° E
Cosmos 1328 4.0 22:04:04 15° SSW 22:07:24 73° WNW 22:11:25 10° N
Cosmos 1331 Rocket 4.1 22:04:27 10° SSW 22:09:47 87° WNW 22:15:08 10° NNE
X-37B 2.4 22:12:09 10° SW 22:12:57 15° SW 22:12:57 15° SW
Cosmos 1408 2.3 22:15:25 24° S 22:17:23 76° E 22:20:51 10° NNE
Lacrosse 5 3.9 22:15:01 10° W 22:17:41 14° WSW 22:20:08 11° SSW
SAR-Lupe-4 4.2 22:14:28 10° N 22:17:58 53° WNW 22:21:00 13° SW
Cosmos 1726 Rocket 4.2 22:14:10 10° NNW 22:18:19 46° W 22:21:23 17° SSW
USA 234 3.4 22:14:24 15° SE 22:19:50 58° SW 22:26:19 10° WNW
Cosmos 1452 Rocket 4.5 22:14:54 10° SW 22:19:59 48° WNW 22:25:06 10° NNE
ATLAS 2AS CENTAUR R/B 4.5 22:15:57 10° WNW 22:20:25 18° WSW 22:24:44 10° SSW
Terra 4.0 22:18:16 10° SW 22:21:34 18° W 22:24:53 10° NW
FALCON 9 DEB 3.1 22:18:45 10° WNW 22:22:01 78° N 22:25:18 10° E
Cosmos 2322 Rocket 3.5 22:18:30 10° NNW 22:23:42 35° NE 22:28:52 10° ESE
Cosmos 2333 Rocket 4.5 22:19:32 10° NNW 22:23:54 22° NNE 22:28:17 10° E
Cosmos 1833 Rocket 2.9 22:19:00 10° SW 22:24:37 75° WNW 22:30:17 10° NNE
Cosmos 1867 3.6 22:21:43 10° NW 22:27:13 82° SW 22:31:18 18° SE
Cosmos 2278 3.8 22:22:18 10° NNW 22:28:04 82° ENE 22:32:24 18° SE
SL-8 Rocket 4.1 22:22:54 10° NNW 22:29:11 78° W 22:33:46 19° S
ATLAS 5 CENTAUR R/B 3.0 22:30:25 16° SE 22:30:56 17° ESE 22:33:30 10° ENE
Cosmos 1812 Rocket 4.2 22:27:12 10° N 22:31:33 47° ENE 22:34:25 20° SE
ALOS 2 2.6 22:32:45 23° SSE 22:35:30 83° ENE 22:39:56 10° NNW
Cosmos 1302 Rocket 3.9 22:31:56 16° SSW 22:36:05 82° ESE 22:41:19 10° NNE
Cosmos 2218 Rocket 4.1 22:34:49 10° NNW 22:41:15 76° W 22:45:53 20° S
Cosmos 2366 rocket 4.2 22:38:42 10° NNW 22:45:00 72° W 22:49:34 20° S
Aureole 1 Rocket 4.4 22:38:37 10° NNW 22:45:21 82° ENE 22:51:53 17° SSE
Cosmos 2082 Rocket 2.2 22:42:49 16° SSW 22:47:26 77° ESE 22:53:10 10° NNE
Cosmos 1602 Rocket 4.0 22:45:32 24° SSE 22:47:51 49° E 22:52:03 10° NNE
H-2A R/B 3.5 22:44:30 10° NNE 22:48:43 73° ESE 22:51:10 24° S
Cosmos 2058 Rocket 4.1 22:48:13 10° NNW 22:52:16 36° W 22:55:04 18° SSW
Spot 4 4.5 22:52:43 20° SSW 22:55:40 45° W 23:00:18 10° NNW
Cosmos 1825 2.2 22:58:49 25° SSW 23:00:52 74° W 23:04:38 10° N
Cosmos 2360 Rocket 3.3 22:57:54 10° NNW 23:03:20 42° NE 23:08:42 10° ESE
ERS-2 2.4 23:00:50 10° NNE 23:04:21 52° ESE 23:05:53 29° SSE
Cosmos-2242 3.0 23:01:36 10° N 23:05:53 79° ENE 23:08:16 25° SSE
Cosmos 1626 Rocket 3.7 23:10:22 22° SSW 23:13:04 66° WNW 23:17:25 10° N
Cosmos 1869 4.2 23:11:36 10° NNW 23:15:12 37° W 23:17:08 22° SW
Cosmos 1606 2.8 23:12:26 10° N 23:16:17 72° ENE 23:18:18 27° SSE
Cosmos 1934 Rocket 4.3 23:11:43 10° N 23:17:43 58° ENE 23:22:23 17° SSE
BREEZE-M DEB (TANK) 4.1 23:14:19 10° W 23:17:56 63° S 23:32:38 10° ESE
Cosmos 2058 3.7 23:16:21 23° SSE 23:18:31 41° E 23:22:28 10° NNE
Cosmos 1825 Rocket 3.9 23:22:58 24° SSE 23:25:17 52° E 23:29:31 10° NNE
ADEOS Rocket 3.8 23:20:28 20° S 23:25:34 55° W 23:33:06 10° NNW
COSMOS 2406 4.1 23:20:57 10° SW 23:26:33 49° NW 23:32:09 10° NNE
USA 267 3.5 23:20:17 10° ENE 23:26:49 73° NNW 23:33:20 10° WSW
Cosmos 1633 2.5 23:25:15 29° SSW 23:26:52 71° W 23:30:22 10° N
SL-16 R/B 2.2 23:23:22 10° NNW 23:29:04 78° WSW 23:33:08 20° SSE
Cosmos 1980 Rocket 3.7 23:31:01 10° NW 23:35:25 23° WSW 23:38:22 16° SW
SJ 16-02 1.3 23:32:02 10° NNW 23:36:29 85° WSW 23:39:13 23° SSE
Meteor 2-20 4.5 23:32:15 21° SSW 23:36:35 79° WNW 23:42:43 10° N
USA 276 2.0 23:37:34 10° W 23:40:31 51° S 23:43:27 10° ESE
Meteor 2-2 Rocket 4.4 23:35:34 10° NNW 23:41:34 88° ENE 23:45:55 20° SSE
Cosmos 1821 Rocket 4.3 23:35:37 10° NNW 23:41:45 56° W 23:45:54 21° SSW
Cosmos 2219 Rocket 3.5 23:38:22 10° NNW 23:43:42 40° NE 23:49:01 10° ESE
CZ-2D R/B 4.1 23:45:52 10° NE 23:49:22 18° E 23:52:52 10° SE
Cosmos 1340 Rocket 3.1 23:48:44 25° SSE 23:50:44 54° E 23:54:37 10° NNE
